SL-14 DEB, 45291

Orbit data source: Space-Track

SL-14 DEB, 45291 is space debris in LEO originally from a launch on Thu, 15 Aug 1991 UTC launched from the Plesetsk Missile And Space Complex (PKMTR). Debris objects in space refer to the collection of defunct objects orbiting the Earth. Examples of debris include non-operational satellites, rocket bodies, and fragments generated from explosions, collisions, or faulty payload assembly.

Loading next visibility...
Identifier
45291, 1991-056AD
Orbit
LEO
Country
Flag of CISCIS
Related business
Manufacturer
Unknown
Mission
Spacecraft
Bus & Motor
Unknown
Mass
Unknown
Launch date (UTC)
1991-08-15 (34 years ago)
Launch vehicle
Unknown
Launch site
Plesetsk Missile And Space Complex (PKMTR)
Object type
Payload
Rocket body
Debris
Shape & HBR
Unknown
Radar Cross Section
Small (<0.1 m²)

Expand to show TLE details & history
Last TLE update: 22 hours ago

TLE from 22 hours ago
0 SL-14 DEB
1 45291U 91056AD  25242.08802715  .00001168  00000-0  32841-2 0  9994
2 45291  82.5514   0.9520 0035643 313.3345  46.4804 13.10753550264432
Epoch: 2025-08-30T02:06Z
TLE epoch observation values (Epoch: 2025-08-30T02:06:45.545Z)
Latitude
-0.00005°
Longitude
-9.26513°
Altitude
1,204.442 km
Speed
7.261 km/s
True Right ascension
00h 03m 48s
True Declination
0° 00' 00"
Sunlit
Object was in full shadow at epoch
Visualization orbit readout
Latitude
Unknown
Longitude
Unknown
Altitude
Unknown
Speed
Unknown
Apparent Right ascension
Unknown
Apparent Declination
Unknown
Sunlit
N/A
Visualization observer readout
Local Sidereal Time
15:52:41
Azimuth
Unknown
Elevation
Unknown
Doppler factor
Unknown
Orbital elements
Apogee altitude
1,244.572 km
Perigee altitude
1,190.426 km
Semi-major axis
7,595.636 km
Eccentricity
0.00356
Inclination
82.5514°
RAAN
0.952°
Arg. of periapsis
313.3345°
True anomaly
46.77748°
Mean anomaly
46.4804°
Eccentric anomaly
46.62885°
Mean motion
3.27866 °/min
Orbital period
109.8 mins
BSTAR
0.0032841
Loading maneuver chart data...
Computing Atmospheric mass density...
Loading historical data...
Loading historical data...
Loading historical data...
Loading historical data...
Loading historical data...
Loading historical data...
Loading historical data...

Documentation

Showing up to 5 results
|